Weather History for KGIC - August, 2014

Change the Weather History Date:

Thursday, August 7, 2014

  Actual Average (KLWS) Record (KLWS)
Temperature  
Mean Temperature 70 °F 76 °F  
Max Temperature 89 °F 91 °F 109 °F (1932)
Min Temperature 51 °F 61 °F 47 °F (1946)
Degree Days  
Heating Degree Days 0 0  
Month to date heating degree days 0  
Since 1 June heating degree days 77  
Since 1 July heating degree days 7  
Cooling Degree Days 5 11  
Month to date cooling degree days 79  
Year to date cooling degree days 509  
Since 1 June cooling degree days 477  
Growing Degree Days 20 (Base 50)    
Moisture  
Dew Point 37 °F    
Average Humidity 33    
Maximum Humidity 66    
Minimum Humidity 12    
Precipitation  
Precipitation 0.00 in 0.02 in 1.10 in (1995)
Month to date precipitation 0.12  
Year to date precipitation 7.96  
Snow  
Snow 0.00 in 0.00 in - ()
Month to date snowfall 0.0  
Since 1 June snowfall 0.0  
Since 1 July snowfall 0.0  
Snow Depth -    
Sea Level Pressure  
Sea Level Pressure 30.05 in    
Wind  
Wind Speed 4 mph (NE)    
Max Wind Speed 14 mph    
Max Gust Speed 21 mph    
Visibility 10 miles    
Events      
T = Trace of Precipitation, MM = Missing Value Source: NWS Daily Summary

Daily Weather History Graph

Daily Weather History Graph

Search for Another Location

Airport or City:

Trip Planner

Search our weather history database for the weather conditions in past years. The results will help you decide how hot, cold, wet, or windy it might be!

Date:

Astronomy

Aug. 07, 2014 Rise Set
Actual Time 5:34 AM PDT 8:05 PM PDT
Civil Twilight 5:00 AM PDT 8:38 PM PDT
Nautical Twilight 4:18 AM PDT 9:20 PM PDT
Astronomical Twilight 3:29 AM PDT 10:08 PM PDT
Moon 5:28 PM PDT (8/7) 2:06 AM PDT (8/7)
Length of Visible Light 15h 38m
Length of Day
14h 30m
Waxing Gibbous, 87% of the Moon is Illuminated
Aug 7
Waxing Gibbous
Aug 10
Full
Aug 17
Last Quarter
Aug 25
New
Sep 2
First Quarter

Hourly Weather History & Observations

Time (PDT) Temp. Dew Point Humidity Pressure Visibility Wind Dir Wind Speed Gust Speed Precip Events Conditions
12:15 AM 61.7 °F 39.9 °F 45% 30.08 in 10.0 mi SE 6.9 mph - N/A   Clear
12:35 AM 63.1 °F 39.4 °F 42% 30.08 in 10.0 mi SSE 5.8 mph - N/A   Clear
12:55 AM 62.1 °F 39.2 °F 43% 30.08 in 10.0 mi SE 6.9 mph - N/A   Clear
1:15 AM 62.4 °F 39.2 °F 42% 30.08 in 10.0 mi SE 8.1 mph - N/A   Clear
1:35 AM 62.2 °F 39.2 °F 43% 30.08 in 10.0 mi SSE 5.8 mph - N/A   Clear
1:55 AM 60.8 °F 39.7 °F 46% 30.08 in 10.0 mi Calm Calm - N/A   Clear
2:15 AM 59.2 °F 40.1 °F 49% 30.08 in 10.0 mi SSE 3.5 mph - N/A   Clear
2:35 AM 59.7 °F 39.9 °F 48% 30.08 in 10.0 mi Calm Calm - N/A   Clear
2:55 AM 58.1 °F 40.6 °F 52% 30.08 in 10.0 mi SSW 3.5 mph - N/A   Clear
3:15 AM 57.9 °F 40.6 °F 53% 30.08 in 10.0 mi Calm Calm - N/A   Clear
3:35 AM 56.7 °F 40.6 °F 55% 30.08 in 10.0 mi Calm Calm - N/A   Clear
4:00 AM 55.6 °F 40.6 °F 57% 30.08 in 10.0 mi Calm Calm - N/A   Clear
4:15 AM 53.4 °F 40.8 °F 62% 30.08 in 10.0 mi Calm Calm - N/A   Clear
4:35 AM 52.3 °F 40.8 °F 65% 30.08 in 10.0 mi Calm Calm - N/A   Clear
4:55 AM 52.0 °F 40.6 °F 65% 30.08 in 10.0 mi Calm Calm - N/A   Clear
5:15 AM 51.4 °F 40.3 °F 66% 30.09 in 10.0 mi Calm Calm - N/A   Clear
5:35 AM 53.1 °F 40.3 °F 62% 30.09 in 10.0 mi Calm Calm - N/A   Clear
5:55 AM 51.4 °F 40.5 °F 66% 30.09 in 7.0 mi South 3.5 mph - N/A   Clear
6:15 AM 55.4 °F 41.2 °F 59% 30.09 in 10.0 mi SE 5.8 mph - N/A   Clear
6:35 AM 58.8 °F 41.4 °F 52% 30.09 in 10.0 mi SE 8.1 mph - N/A   Clear
6:55 AM 60.6 °F 42.4 °F 51% 30.09 in 10.0 mi Calm Calm - N/A   Clear
7:15 AM 62.6 °F 43.0 °F 49% 30.09 in 10.0 mi Calm Calm - N/A   Clear
7:35 AM 66.0 °F 42.1 °F 42% 30.10 in 10.0 mi Calm Calm - N/A   Clear
7:55 AM 67.3 °F 39.7 °F 36% 30.10 in 10.0 mi NNE 3.5 mph - N/A   Clear
8:15 AM 67.8 °F 39.6 °F 36% 30.10 in 10.0 mi Calm Calm - N/A   Clear
8:35 AM 68.7 °F 39.9 °F 35% 30.11 in 10.0 mi Calm Calm - N/A   Clear
8:55 AM 70.0 °F 39.6 °F 33% 30.11 in 10.0 mi Calm Calm - N/A   Clear
9:15 AM 71.6 °F 41.0 °F 33% 30.10 in 10.0 mi Calm Calm - N/A   Clear
9:35 AM 73.8 °F 41.4 °F 31% 30.10 in 10.0 mi East 3.5 mph - N/A   Clear
9:55 AM 75.6 °F 41.2 °F 29% 30.09 in 10.0 mi Calm Calm - N/A   Clear
10:15 AM 76.8 °F 40.8 °F 27% 30.09 in 10.0 mi Calm Calm - N/A   Clear
10:35 AM 77.5 °F 40.5 °F 26% 30.08 in 10.0 mi NNE 3.5 mph - N/A   Clear
10:55 AM 79.2 °F 39.9 °F 25% 30.08 in 10.0 mi Calm Calm - N/A   Clear
11:15 AM 79.7 °F 39.7 °F 24% 30.08 in 10.0 mi ESE 5.8 mph - N/A   Clear
11:35 AM 80.4 °F 39.9 °F 24% 30.08 in 10.0 mi ENE 5.8 mph - N/A   Clear
11:55 AM 81.5 °F 39.7 °F 23% 30.07 in 10.0 mi ENE 4.6 mph - N/A   Clear
12:15 PM 82.4 °F 38.7 °F 21% 30.06 in 10.0 mi NNE 3.5 mph - N/A   Clear
12:35 PM 83.1 °F 36.7 °F 19% 30.05 in 10.0 mi East 4.6 mph - N/A   Clear
12:55 PM 84.6 °F 34.7 °F 17% 30.04 in 10.0 mi West 6.9 mph - N/A   Clear
1:15 PM 85.8 °F 35.2 °F 16% 30.04 in 10.0 mi NE 3.5 mph - N/A   Clear
1:35 PM 86.0 °F 33.8 °F 15% 30.03 in 10.0 mi SSW 5.8 mph - N/A   Clear
1:55 PM 87.4 °F 32.5 °F 14% 30.03 in 10.0 mi West 8.1 mph - N/A   Clear
2:15 PM 88.0 °F 31.1 °F 13% 30.02 in 10.0 mi SW 6.9 mph - N/A   Clear
2:35 PM 88.9 °F 28.8 °F 12% 30.01 in 10.0 mi WNW 5.8 mph - N/A   Clear
2:55 PM 89.1 °F 29.8 °F 12% 30.01 in 10.0 mi NNW 3.5 mph - N/A   Clear
3:15 PM 88.2 °F 28.4 °F 12% 30.00 in 10.0 mi WSW 5.8 mph - N/A   Clear
3:35 PM 89.2 °F 30.0 °F 12% 29.99 in 10.0 mi WSW 8.1 mph - N/A   Clear
3:55 PM 89.1 °F 29.7 °F 12% 29.99 in 10.0 mi North 11.5 mph 16.1 mph N/A   Clear
4:15 PM 89.4 °F 29.8 °F 12% 29.99 in 10.0 mi NNE 11.5 mph 16.1 mph N/A   Clear
4:35 PM 88.7 °F 34.2 °F 14% 29.99 in 10.0 mi NNE 13.8 mph 20.7 mph N/A   Clear
4:55 PM 88.0 °F 35.2 °F 15% 29.99 in 10.0 mi North 13.8 mph 19.6 mph N/A   Clear
5:15 PM 87.3 °F 36.9 °F 17% 29.99 in 10.0 mi North 11.5 mph 19.6 mph N/A   Clear
5:35 PM 86.4 °F 36.9 °F 17% 29.99 in 10.0 mi North 13.8 mph 18.4 mph N/A   Clear
5:55 PM 85.8 °F 34.7 °F 16% 29.99 in 10.0 mi North 11.5 mph 20.7 mph N/A   Clear
6:15 PM 84.9 °F 32.9 °F 15% 29.99 in 10.0 mi North 9.2 mph - N/A   Clear
6:35 PM 84.0 °F 32.2 °F 15% 29.99 in 10.0 mi North 9.2 mph - N/A   Clear
6:55 PM 82.9 °F 34.3 °F 17% 30.00 in 10.0 mi North 9.2 mph - N/A   Clear
7:15 PM 81.3 °F 35.1 °F 19% 30.00 in 10.0 mi NNW 8.1 mph - N/A   Clear
7:35 PM 79.0 °F 36.1 °F 21% 30.00 in 10.0 mi North 6.9 mph - N/A   Clear
7:55 PM 76.3 °F 36.7 °F 24% 30.00 in 10.0 mi NNW 5.8 mph - N/A   Clear
8:15 PM 72.3 °F 36.5 °F 27% 30.01 in 10.0 mi NW 4.6 mph - N/A   Clear
8:35 PM 70.5 °F 36.0 °F 28% 30.02 in 10.0 mi Calm Calm - N/A   Clear
8:55 PM 69.3 °F 36.0 °F 29% 30.02 in 10.0 mi Calm Calm - N/A   Clear
9:15 PM 70.2 °F 34.9 °F 27% 30.03 in 10.0 mi Calm Calm - N/A   Clear
9:35 PM 71.2 °F 34.0 °F 25% 30.03 in 10.0 mi SSW 3.5 mph - N/A   Clear
9:55 PM 69.6 °F 34.0 °F 27% 30.04 in 10.0 mi Calm Calm - N/A   Clear
10:15 PM 66.6 °F 35.1 °F 31% 30.04 in 10.0 mi South 4.6 mph - N/A   Clear
10:35 PM 63.0 °F 36.3 °F 37% 30.04 in 10.0 mi South 5.8 mph - N/A   Scattered Clouds
10:55 PM 62.1 °F 36.3 °F 38% 30.04 in 10.0 mi South 4.6 mph - N/A   Scattered Clouds
11:15 PM 61.0 °F 36.5 °F 40% 30.04 in 10.0 mi Calm Calm - N/A   Clear
11:35 PM 62.4 °F 36.7 °F 38% 30.04 in 10.0 mi Calm Calm - N/A   Clear
11:55 PM 61.3 °F 37.0 °F 40% 30.04 in 10.0 mi Calm Calm - N/A   Clear